Sara Borchard — V2BY8 — position and weather

sailwx.info

Track history (hours):
 
Tides and Currents Weather Stations Pressure Air Temp Water Temp Dewpoint Dewpoint Depression Visibility Wind Speed Wind Dir Waves Ship Positions

Sara Borchard

Last reported at 2014-Oct-25 00:27 UTC. Time now 2014-Oct-26 03:52 UTC.
Position N 42°06' E 010°21'.

Length 134 m; draft 7.8 m.

Type: Ship (hazmat cat A). MMSI: 304962000.

Date/timePositionNaut miles runAvg speedWind from/ knotsBaromVisibWave heightAir tempDewpointWater temp
2014-Oct-25 00:27N 42°06' E 010°21'3116.3
2014-Oct-24 22:32N 42°30' E 009°54'1717.6
2014-Oct-24 21:33N 42°46' E 009°46'1717.4
2014-Oct-24 20:33N 43°03' E 009°39'1717.3
2014-Oct-24 19:33N 43°19' E 009°31'1817.6
2014-Oct-24 18:34N 43°36' E 009°22'1717.5
2014-Oct-24 17:33N 43°52' E 009°13'1717.1
2014-Oct-24 16:33N 44°08' E 009°05'1716.7
2014-Oct-24 15:33N 44°23' E 008°56'2 1.7
2014-Oct-24 14:31N 44°24' E 008°54'0 0.0
2014-Oct-24 13:31N 44°24' E 008°54'0 0.0
2014-Oct-24 12:31N 44°24' E 008°54'0 0.0
2014-Oct-24 11:27N 44°24' E 008°54'0 0.0
2014-Oct-24 10:30N 44°24' E 008°54'0 0.0
2014-Oct-24 09:26N 44°24' E 008°54'0 0.0
2014-Oct-24 08:32N 44°24' E 008°54'0 0.0
2014-Oct-24 07:31N 44°24' E 008°54'0 0.0
2014-Oct-24 06:32N 44°24' E 008°54'4 4.4
2014-Oct-24 05:33N 44°22' E 008°59'3 2.7
2014-Oct-24 04:32N 44°20' E 009°02'0 0.1
2014-Oct-24 03:28N 44°20' E 009°02'3 3.5
2014-Oct-24 02:33N 44°18' E 008°59'1211.9
2014-Oct-24 01:33N 44°10' E 008°47'1413.5
2014-Oct-24 00:33N 44°00' E 008°34'1413.7
2014-Oct-23 23:33N 43°51' E 008°20'1413.7
2014-Oct-23 22:33N 43°42' E 008°06'1414.0
2014-Oct-23 21:33N 43°33' E 007°50'1414.4
2014-Oct-23 20:34N 43°26' E 007°34'1515.0
2014-Oct-23 19:34N 43°17' E 007°17'1616.0
2014-Oct-23 18:33N 43°07' E 006°60'1615.7
2014-Oct-23 17:34N 42°57' E 006°43'1614.4
2014-Oct-23 16:25N 42°52' E 006°22'1715.4
2014-Oct-23 15:18N 42°52' E 005°58'1415.9
2014-Oct-23 14:26N 42°58' E 005°41'1916.6
2014-Oct-23 13:17N 43°06' E 005°17'1115.4
2014-Oct-23 12:33N 43°15' E 005°10'9 0.3
2014-Oct-22 07:12N 43°21' E 005°20'0 0.0
2014-Oct-22 05:30N 43°21' E 005°20'1 0.9
2014-Oct-22 04:33N 43°21' E 005°19'1111.1
2014-Oct-22 03:33N 43°12' E 005°11'7213.9
2014-Oct-21 22:25N 42°18' E 004°07'1914.0
2014-Oct-21 21:04N 42°06' E 003°47'2715.4
2014-Oct-21 19:19N 41°50' E 003°18'1516.2
2014-Oct-21 18:23N 41°41' E 003°02'1417.1
2014-Oct-21 17:33N 41°32' E 002°46'1817.3
2014-Oct-21 16:32N 41°21' E 002°28'104 6.0
2014-Oct-20 23:04N 40°20' E 000°36'1717.5
2014-Oct-20 22:07N 40°09' E 000°21'1017.6
2014-Oct-20 21:32N 40°01' E 000°12'8 1.5
2014-Oct-20 16:29N 39°57' E 000°04'3213.8
2014-Oct-20 14:11N 39°44' E 000°41'3014.8
2014-Oct-20 12:08N 39°32' E 001°17'1118.3
2014-Oct-20 11:33N 39°28' E 001°30'1512.7
2014-Oct-20 10:24N 39°23' E 001°47'1515.6
2014-Oct-20 09:28N 39°17' E 002°05'1314.4
2014-Oct-20 08:33N 39°12' E 002°21'1715.3
2014-Oct-20 07:26N 39°06' E 002°41'1314.8
2014-Oct-20 06:33N 39°01' E 002°57'8516.2
2014-Oct-20 01:17N 38°40' E 004°43'1816.7
2014-Oct-20 00:11N 38°36' E 005°06'6116.5
2014-Oct-19 20:27N 38°20' E 006°22'1516.3
2014-Oct-19 19:32N 38°16' E 006°40'1616.1
2014-Oct-19 18:32N 38°13' E 007°00'1616.5
2014-Oct-19 17:34N 38°10' E 007°20'1916.7
2014-Oct-19 16:26N 38°05' E 007°43'1616.8
2014-Oct-19 15:28N 38°01' E 008°03'1617.0
2014-Oct-19 14:33N 37°57' E 008°22'1716.6
2014-Oct-19 13:33N 37°54' E 008°43'1716.7
2014-Oct-19 12:33N 37°50' E 009°04'1717.3
2014-Oct-19 11:33N 37°46' E 009°25'1716.3
2014-Oct-19 10:32N 37°42' E 009°45'13016.3
2014-Oct-19 02:33N 36°60' E 012°21'1716.7
2014-Oct-19 01:33N 36°55' E 012°40'1717.1
2014-Oct-19 00:33N 36°50' E 013°01'1716.9
2014-Oct-18 23:33N 36°44' E 013°21'1717.1
2014-Oct-18 22:33N 36°38' E 013°41'1717.0
2014-Oct-18 21:33N 36°32' E 014°01'1717.1
2014-Oct-18 20:33N 36°26' E 014°21'1716.8
2014-Oct-18 19:33N 36°22' E 014°41'1716.5
2014-Oct-18 18:33N 36°16' E 015°00'1816.8
2014-Oct-18 17:28N 36°11' E 015°22'21916.9
2014-Oct-18 04:33N 34°48' E 019°30'1717.1
2014-Oct-18 03:33N 34°41' E 019°49'1717.0
2014-Oct-18 02:33N 34°35' E 020°08'1717.1
2014-Oct-18 01:33N 34°29' E 020°28'1716.9
2014-Oct-18 00:33N 34°22' E 020°47'1717.0
2014-Oct-17 23:33N 34°15' E 021°05'1717.0
2014-Oct-17 22:33N 34°08' E 021°24'35916.9
2014-Oct-17 01:18N 31°49' E 027°60'  
Track history (hours):
 
Tides and Currents Weather Stations Pressure Air Temp Water Temp Dewpoint Dewpoint Depression Visibility Wind Speed Wind Dir Waves Ship Positions

Sara Borchard

Last reported at 2014-Oct-25 00:27 UTC. Time now 2014-Oct-26 03:52 UTC.
Position N 42°06' E 010°21'.

Length 134 m; draft 7.8 m.

Type: Ship (hazmat cat A). MMSI: 304962000.

Date/timePositionNaut miles runAvg speedWind from/ knotsBaromVisibWave heightAir tempDewpointWater temp
2014-Oct-25 00:27N 42°06' E 010°21'3116.3
2014-Oct-24 22:32N 42°30' E 009°54'1717.6
2014-Oct-24 21:33N 42°46' E 009°46'1717.4
2014-Oct-24 20:33N 43°03' E 009°39'1717.3
2014-Oct-24 19:33N 43°19' E 009°31'1817.6
2014-Oct-24 18:34N 43°36' E 009°22'1717.5
2014-Oct-24 17:33N 43°52' E 009°13'1717.1
2014-Oct-24 16:33N 44°08' E 009°05'1716.7
2014-Oct-24 15:33N 44°23' E 008°56'2 1.7
2014-Oct-24 14:31N 44°24' E 008°54'0 0.0
2014-Oct-24 13:31N 44°24' E 008°54'0 0.0
2014-Oct-24 12:31N 44°24' E 008°54'0 0.0
2014-Oct-24 11:27N 44°24' E 008°54'0 0.0
2014-Oct-24 10:30N 44°24' E 008°54'0 0.0
2014-Oct-24 09:26N 44°24' E 008°54'0 0.0
2014-Oct-24 08:32N 44°24' E 008°54'0 0.0
2014-Oct-24 07:31N 44°24' E 008°54'0 0.0
2014-Oct-24 06:32N 44°24' E 008°54'4 4.4
2014-Oct-24 05:33N 44°22' E 008°59'3 2.7
2014-Oct-24 04:32N 44°20' E 009°02'0 0.1
2014-Oct-24 03:28N 44°20' E 009°02'3 3.5
2014-Oct-24 02:33N 44°18' E 008°59'1211.9
2014-Oct-24 01:33N 44°10' E 008°47'1413.5
2014-Oct-24 00:33N 44°00' E 008°34'1413.7
2014-Oct-23 23:33N 43°51' E 008°20'1413.7
2014-Oct-23 22:33N 43°42' E 008°06'1414.0
2014-Oct-23 21:33N 43°33' E 007°50'1414.4
2014-Oct-23 20:34N 43°26' E 007°34'1515.0
2014-Oct-23 19:34N 43°17' E 007°17'1616.0
2014-Oct-23 18:33N 43°07' E 006°60'1615.7
2014-Oct-23 17:34N 42°57' E 006°43'1614.4
2014-Oct-23 16:25N 42°52' E 006°22'1715.4
2014-Oct-23 15:18N 42°52' E 005°58'1415.9
2014-Oct-23 14:26N 42°58' E 005°41'1916.6
2014-Oct-23 13:17N 43°06' E 005°17'1115.4
2014-Oct-23 12:33N 43°15' E 005°10'9 0.3
2014-Oct-22 07:12N 43°21' E 005°20'0 0.0
2014-Oct-22 05:30N 43°21' E 005°20'1 0.9
2014-Oct-22 04:33N 43°21' E 005°19'1111.1
2014-Oct-22 03:33N 43°12' E 005°11'7213.9
2014-Oct-21 22:25N 42°18' E 004°07'1914.0
2014-Oct-21 21:04N 42°06' E 003°47'2715.4
2014-Oct-21 19:19N 41°50' E 003°18'1516.2
2014-Oct-21 18:23N 41°41' E 003°02'1417.1
2014-Oct-21 17:33N 41°32' E 002°46'1817.3
2014-Oct-21 16:32N 41°21' E 002°28'104 6.0
2014-Oct-20 23:04N 40°20' E 000°36'1717.5
2014-Oct-20 22:07N 40°09' E 000°21'1017.6
2014-Oct-20 21:32N 40°01' E 000°12'8 1.5
2014-Oct-20 16:29N 39°57' E 000°04'3213.8
2014-Oct-20 14:11N 39°44' E 000°41'3014.8
2014-Oct-20 12:08N 39°32' E 001°17'1118.3
2014-Oct-20 11:33N 39°28' E 001°30'1512.7
2014-Oct-20 10:24N 39°23' E 001°47'1515.6
2014-Oct-20 09:28N 39°17' E 002°05'1314.4
2014-Oct-20 08:33N 39°12' E 002°21'1715.3
2014-Oct-20 07:26N 39°06' E 002°41'1314.8
2014-Oct-20 06:33N 39°01' E 002°57'8516.2
2014-Oct-20 01:17N 38°40' E 004°43'1816.7
2014-Oct-20 00:11N 38°36' E 005°06'6116.5
2014-Oct-19 20:27N 38°20' E 006°22'1516.3
2014-Oct-19 19:32N 38°16' E 006°40'1616.1
2014-Oct-19 18:32N 38°13' E 007°00'1616.5
2014-Oct-19 17:34N 38°10' E 007°20'1916.7
2014-Oct-19 16:26N 38°05' E 007°43'1616.8
2014-Oct-19 15:28N 38°01' E 008°03'1617.0
2014-Oct-19 14:33N 37°57' E 008°22'1716.6
2014-Oct-19 13:33N 37°54' E 008°43'1716.7
2014-Oct-19 12:33N 37°50' E 009°04'1717.3
2014-Oct-19 11:33N 37°46' E 009°25'1716.3
2014-Oct-19 10:32N 37°42' E 009°45'13016.3
2014-Oct-19 02:33N 36°60' E 012°21'1716.7
2014-Oct-19 01:33N 36°55' E 012°40'1717.1
2014-Oct-19 00:33N 36°50' E 013°01'1716.9
2014-Oct-18 23:33N 36°44' E 013°21'1717.1
2014-Oct-18 22:33N 36°38' E 013°41'1717.0
2014-Oct-18 21:33N 36°32' E 014°01'1717.1
2014-Oct-18 20:33N 36°26' E 014°21'1716.8
2014-Oct-18 19:33N 36°22' E 014°41'1716.5
2014-Oct-18 18:33N 36°16' E 015°00'1816.8
2014-Oct-18 17:28N 36°11' E 015°22'21916.9
2014-Oct-18 04:33N 34°48' E 019°30'1717.1
2014-Oct-18 03:33N 34°41' E 019°49'1717.0
2014-Oct-18 02:33N 34°35' E 020°08'1717.1
2014-Oct-18 01:33N 34°29' E 020°28'1716.9
2014-Oct-18 00:33N 34°22' E 020°47'1717.0
2014-Oct-17 23:33N 34°15' E 021°05'1717.0
2014-Oct-17 22:33N 34°08' E 021°24'35916.9
2014-Oct-17 01:18N 31°49' E 027°60'  

Dump ship's entire track history